Weather History for 71706 - March, 2013

Change the Weather History Date:

Friday, March 22, 2013

  Actual Average Record
Temperature  
Mean Temperature 30 °F -  
Max Temperature 33 °F 40 °F - ()
Min Temperature 27 °F 26 °F - ()
Degree Days  
Heating Degree Days 35    
Moisture  
Dew Point 26 °F    
Average Humidity 85    
Maximum Humidity 100    
Minimum Humidity 65    
Precipitation  
Precipitation 0.31 in 0.12 in - ()
Sea Level Pressure  
Sea Level Pressure 29.35 in    
Wind  
Wind Speed 15 mph ()    
Max Wind Speed 29 mph    
Max Gust Speed 44 mph    
Visibility 6.7 miles    
Events Snow    
T = Trace of Precipitation, MM = Missing Value Source: Averaged Metar Reports

Daily Weather History Graph

Daily Weather History Graph

Search for Another Location

Airport or City:

Trip Planner

Search our weather history database for the weather conditions in past years. The results will help you decide how hot, cold, wet, or windy it might be!

Date:

Astronomy

Mar. 22, 2013 Rise Set
Actual Time 7:11 AM ADT 7:28 PM ADT
Civil Twilight 6:41 AM ADT 7:58 PM ADT
Nautical Twilight 6:05 AM ADT 8:33 PM ADT
Astronomical Twilight 5:29 AM ADT 9:10 PM ADT
Moon 2:37 PM ADT (3/22) 4:23 AM ADT (3/22)
Length of Visible Light 13h 16m
Length of Day
12h 16m
Waxing Gibbous, 76% of the Moon is Illuminated
Mar 22
Waxing Gibbous
Mar 27
Full
Apr 3
Last Quarter
Apr 10
New
Apr 18
First Quarter

Hourly Weather History & Observations

Time (ADT) Temp. Windchill Dew Point Humidity Pressure Visibility Wind Dir Wind Speed Gust Speed Precip Events Conditions
12:00 AM 30.2 °F 22.6 °F 28.4 °F 93% 29.60 in 10.0 mi East 8.1 mph - N/A Snow Light Snow
12:38 AM 30.2 °F 21.9 °F 28.4 °F 93% 29.55 in 1.5 mi NNE 9.2 mph - N/A Snow Light Snow
12:43 AM 30.2 °F 21.9 °F 28.4 °F 93% 29.55 in 0.8 mi NNE 9.2 mph - N/A Snow Light Snow
1:00 AM 30.2 °F 20.8 °F 28.4 °F 93% 29.53 in 1.5 mi North 11.5 mph - N/A Snow Light Snow
2:00 AM 28.4 °F 15.4 °F 28.4 °F 100% 29.48 in 2.0 mi NNE 19.6 mph 25.3 mph N/A Snow Light Snow
3:00 AM 29 °F - 28 °F 94% 29.42 in 2 mi NNE 24.2 mph - - Snow Light Snow
3:00 AM 28.4 °F 14.1 °F 28.4 °F 100% 29.42 in 2.0 mi NNE 24.2 mph 32.2 mph N/A Snow Light Snow
4:00 AM 28.4 °F 14.4 °F 26.6 °F 93% 29.37 in 0.5 mi North 23.0 mph 35.7 mph N/A Snow Light Snow
4:46 AM 28.4 °F 15.4 °F 26.6 °F 93% 29.32 in 0.5 mi NNW 19.6 mph 31.1 mph N/A Snow Snow
5:00 AM 28.4 °F 14.7 °F 26.6 °F 93% 29.31 in 0.5 mi NNW 21.9 mph 32.2 mph N/A Snow Snow
6:00 AM 28.4 °F 16.2 °F 26.6 °F 93% 29.29 in 0.5 mi NNW 17.3 mph 38.0 mph N/A Snow Snow
7:00 AM 28.4 °F 14.1 °F 26.6 °F 93% 29.27 in 0.5 mi NNW 24.2 mph 35.7 mph N/A Snow Snow
8:00 AM 28.4 °F 14.4 °F 28.4 °F 100% 29.26 in 0.5 mi NNW 23.0 mph 36.8 mph N/A Snow Snow
8:28 AM 28.4 °F 14.7 °F 26.6 °F 93% 29.26 in 0.6 mi NW 21.9 mph 38.0 mph N/A Snow Light Snow
9:00 AM 29 °F - 27 °F 91% 29.25 in 1 mi NW 24.2 mph - - Snow Light Snow
9:00 AM 28.4 °F 13.8 °F 26.6 °F 93% 29.25 in 0.6 mi NW 25.3 mph 43.7 mph N/A Snow Light Snow
10:00 AM 28.4 °F 15.1 °F 28.4 °F 100% 29.26 in 0.6 mi WNW 20.7 mph 36.8 mph N/A Snow Light Snow
11:00 AM 30.2 °F 15.9 °F 26.6 °F 86% 29.25 in 0.6 mi WNW 26.5 mph 38.0 mph N/A Snow Light Snow
11:16 AM 30.2 °F 15.7 °F 26.6 °F 86% 29.26 in 0.8 mi WNW 27.6 mph 41.4 mph N/A Snow Light Snow
11:30 AM 30.2 °F 15.9 °F 26.6 °F 86% 29.26 in 2.0 mi WNW 26.5 mph 42.6 mph N/A Snow Light Snow
12:00 PM 30.2 °F 15.4 °F 26.6 °F 86% 29.26 in 3.0 mi NW 28.8 mph 41.4 mph N/A Snow Light Snow
1:00 PM 30.2 °F 16.2 °F 26.6 °F 86% 29.28 in 6.0 mi WNW 25.3 mph 39.1 mph N/A Snow Light Snow
2:00 PM 30.2 °F 17.4 °F 24.8 °F 80% 29.30 in 12.0 mi WNW 20.7 mph 33.4 mph N/A   Overcast
3:00 PM 31 °F - 25 °F 72% 29.31 in 15 mi WNW 17.3 mph - - Snow Light Snow
3:00 PM 32.0 °F 22.1 °F 24.8 °F 75% 29.31 in 15.0 mi WNW 13.8 mph 28.8 mph N/A Snow Light Snow
4:00 PM 32.0 °F 21.2 °F 24.8 °F 75% 29.32 in 15.0 mi West 16.1 mph 25.3 mph N/A Snow Light Snow Showers
5:00 PM 33.8 °F 23.5 °F 24.8 °F 70% 29.33 in 15.0 mi West 16.1 mph 27.6 mph N/A   Mostly Cloudy
5:42 PM 33.8 °F 24.8 °F 24.8 °F 70% 29.33 in 12.0 mi West 12.7 mph 20.7 mph N/A Snow Light Snow Showers
6:00 PM 33.8 °F 24.8 °F 24.8 °F 70% 29.34 in 15.0 mi West 12.7 mph 20.7 mph N/A Snow Light Snow Showers
6:19 PM 33.8 °F 26.4 °F 24.8 °F 70% 29.34 in 15.0 mi West 9.2 mph 18.4 mph N/A   Mostly Cloudy
7:00 PM 33.8 °F 26.4 °F 24.8 °F 70% 29.35 in 15.0 mi West 9.2 mph - N/A   Mostly Cloudy
8:00 PM 33.8 °F 25.3 °F 23.0 °F 65% 29.35 in 15.0 mi West 11.5 mph 18.4 mph N/A   Mostly Cloudy
9:00 PM 32 °F - 25 °F 67% 29.37 in 15 mi WSW 10.4 mph - -   Partly Cloudy
9:00 PM 32.0 °F 24.2 °F 24.8 °F 75% 29.36 in 15.0 mi SW 9.2 mph - N/A   Mostly Cloudy
10:00 PM 30.2 °F 22.6 °F 26.6 °F 86% 29.38 in 15.0 mi WNW 8.1 mph - N/A   Mostly Cloudy
11:00 PM 30.2 °F 21.9 °F 23.0 °F 75% 29.37 in 15.0 mi WSW 9.2 mph - N/A   Mostly Cloudy